North Island, CA

6:05 AM PDT on March 26, 2017 (GMT -0700)
North Island Naval Air Station

Weather History for KNZY - October, 2013

Change the Weather History Date:

Thursday, October 10, 2013

  Actual Average Record
Temperature  
Mean Temperature 67 °F -  
Max Temperature 73 °F 70 °F 91 °F (2015)
Min Temperature 61 °F 59 °F 59 °F (1999)
Cooling Degree Days 2    
Growing Degree Days 17 (Base 50)    
Moisture  
Dew Point 51 °F    
Average Humidity 56    
Maximum Humidity 72    
Minimum Humidity 47    
Precipitation  
Precipitation 0.32 in - - ()
Sea Level Pressure  
Sea Level Pressure 29.95 in    
Wind  
Wind Speed 7 mph (West)    
Max Wind Speed 10 mph    
Max Gust Speed 16 mph    
Visibility 10 miles    
Events      
Averages and records for this station are not official NWS values.
T = Trace of Precipitation, MM = Missing Value Source: NWS Daily Summary

Daily Weather History Graph

Daily Weather History Graph

Search for Another Location

Airport or City:

Trip Planner

Search our weather history database for the weather conditions in past years. The results will help you decide how hot, cold, wet, or windy it might be!

Date:

Astronomy

Oct. 10, 2013 Rise Set
Actual Time 6:49 AM PDT 6:21 PM PDT
Civil Twilight 6:24 AM PDT 6:46 PM PDT
Nautical Twilight 5:56 AM PDT 7:14 PM PDT
Astronomical Twilight 5:27 AM PDT 7:43 PM PDT
Moon 12:33 PM PDT (10/10) 11:15 PM PDT (10/10)
Length of Visible Light 12h 21m
Length of Day
11h 32m
Waxing Crescent, 37% of the Moon is Illuminated
Oct 10
Waxing Crescent
Oct 11
First Quarter
Oct 18
Full
Oct 26
Last Quarter
Nov 3
New

Hourly Weather History & Observations

Time (PDT) Temp. Dew Point Humidity Pressure Visibility Wind Dir Wind Speed Gust Speed Precip Events Conditions
12:52 AM 64.0 °F 48.9 °F 58% 29.83 in 10.0 mi West 5.8 mph - N/A   Mostly Cloudy
1:52 AM 64.0 °F 46.9 °F 54% 29.85 in 10.0 mi West 8.1 mph - N/A   Mostly Cloudy
2:52 AM 64.0 °F 50.0 °F 60% 29.85 in 10.0 mi WSW 10.4 mph 16.1 mph N/A   Mostly Cloudy
3:52 AM 63.0 °F 48.0 °F 58% 29.85 in 10.0 mi WSW 6.9 mph - N/A   Mostly Cloudy
4:52 AM 63.0 °F 48.9 °F 60% 29.87 in 10.0 mi West 5.8 mph - N/A   Mostly Cloudy
5:52 AM 63.0 °F 48.9 °F 60% 29.89 in 10.0 mi Calm Calm - N/A   Mostly Cloudy
6:52 AM 61.0 °F 52.0 °F 72% 29.91 in 10.0 mi ESE 6.9 mph - N/A   Mostly Cloudy
7:52 AM 64.0 °F 52.0 °F 65% 29.95 in 10.0 mi East 4.6 mph - N/A   Mostly Cloudy
8:52 AM 66.9 °F 52.0 °F 59% 29.96 in 10.0 mi SE 8.1 mph - N/A   Scattered Clouds
9:52 AM 69.1 °F 51.1 °F 53% 29.98 in 10.0 mi SE 6.9 mph - N/A   Scattered Clouds
10:52 AM 71.1 °F 50.0 °F 47% 30.00 in 10.0 mi SSE 4.6 mph - N/A   Mostly Cloudy
11:52 AM 72.0 °F 52.0 °F 49% 30.01 in 10.0 mi South 6.9 mph - N/A   Mostly Cloudy
12:52 PM 72.0 °F 52.0 °F 49% 29.99 in 10.0 mi SSW 8.1 mph - 0.32 in   Scattered Clouds
1:52 PM 73.0 °F 52.0 °F 48% 29.98 in 10.0 mi SSW 10.4 mph - N/A   Scattered Clouds
2:52 PM 72.0 °F 53.1 °F 51% 29.97 in 10.0 mi SSW 9.2 mph - N/A   Scattered Clouds
3:52 PM 72.0 °F 52.0 °F 49% 29.96 in 10.0 mi WSW 9.2 mph - N/A   Scattered Clouds
4:52 PM 71.1 °F 51.1 °F 49% 29.96 in 10.0 mi WNW 10.4 mph - N/A   Scattered Clouds
5:52 PM 69.1 °F 51.1 °F 53% 29.97 in 10.0 mi NW 10.4 mph - N/A   Partly Cloudy
6:52 PM 68.0 °F 51.1 °F 55% 29.97 in 10.0 mi NW 6.9 mph - N/A   Clear
7:52 PM 66.9 °F 51.1 °F 57% 29.98 in 10.0 mi NNW 6.9 mph - N/A   Clear
8:52 PM 66.9 °F 51.1 °F 57% 29.99 in 10.0 mi North 6.9 mph - N/A   Clear
9:52 PM 66.9 °F 51.1 °F 57% 30.00 in 10.0 mi North 4.6 mph - N/A   Clear
10:52 PM 66.0 °F 51.1 °F 59% 29.99 in 10.0 mi NNE 4.6 mph - N/A   Clear
11:52 PM 66.0 °F 51.1 °F 59% 30.00 in 10.0 mi North 3.5 mph - N/A   Clear